This is the latest recevied weather packets stored in our database for station/object EA8BQU-10. If no packets are shown the sender has not sent any weather packets the latest 10 day(s).
| Time | Temp. | Humidity | Pressure | Rain* | Wind** | Luminosity | Snow |
|---|---|---|---|---|---|---|---|
| 1788454654 | 27.22° C | 100% | 1020.2 hPa | - | - | - | - |
| 1788453750 | 27.22° C | 100% | 1020.2 hPa | - | - | - | - |
| 1788452850 | 27.22° C | 100% | 1020.2 hPa | - | - | - | - |
| 1788451950 | 27.22° C | 100% | 1020.3 hPa | - | - | - | - |
| 1788451050 | 26.67° C | 100% | 1020.5 hPa | - | - | - | - |
| 1788450233 | 27.22° C | 100% | 1020.4 hPa | - | - | - | - |
| 1788450150 | 27.22° C | 100% | 1020.4 hPa | - | - | - | - |
| 1788449247 | 26.67° C | 100% | 1020.6 hPa | - | - | - | - |
| 1788448347 | 26.67° C | 100% | 1020.5 hPa | - | - | - | - |
| 1788447741 | 26.67° C | 100% | 1020.3 hPa | - | - | - | - |
| 1788447447 | 26.67° C | 100% | 1020.3 hPa | - | - | - | - |
| 1788446547 | 26.67° C | 100% | 1020.4 hPa | - | - | - | - |
| 1788445647 | 26.67° C | 100% | 1020.7 hPa | - | - | - | - |
| 1788444747 | 26.11° C | 100% | 1020.8 hPa | - | - | - | - |
| 1788443880 | 26.67° C | 100% | 1020.6 hPa | - | - | - | - |
| 1788443847 | 26.67° C | 100% | 1020.6 hPa | - | - | - | - |
| 1788442947 | 26.11° C | 100% | 1020.6 hPa | - | - | - | - |
| 1788442047 | 25.56° C | 100% | 1020.7 hPa | - | - | - | - |
| 1788441146 | 26.11° C | 100% | 1020.4 hPa | - | - | - | - |
| 1788440555 | 26.11° C | 100% | 1020.4 hPa | - | - | - | - |
| 1788440246 | 26.11° C | 100% | 1020.4 hPa | - | - | - | - |
| 1788439346 | 25.56° C | 100% | 1020.1 hPa | - | - | - | - |
| 1788438446 | 25.56° C | 100% | 1019.7 hPa | - | - | - | - |
| 1788437546 | 25° C | 100% | 1019.9 hPa | - | - | - | - |
| 1788436646 | 25.56° C | 100% | 1020.2 hPa | - | - | - | - |
* Rain since midnight (hover to see other rain measurements)
** Current wind speed in m/s (hover to see current wind gust speed)